Home > Weather > Fukushima > Past weeks

Flag for Japan Weather for the Past 2 Weeks in Fukushima, Japan

Now
53 °F

Fog.


Feels Like: 53 °F
Forecast: 44 / 75 °F
Wind: 3 mph from South

Location: Wakamatsu

Current Time: May 2, 2016 at 3:29:51 AM

Latest Report: May 2, 2016 at 2:00 AM


Visibility: 2 mi

Pressure: 30.06 "Hg

Humidity: 95%

Dew Point: 52 °F

Location of FukushimaLocation

Historic Weather in Fukushima — Graph

°F

Fukushima Temperature Yesterday

Maximum temperature yesterday: 61 °F (at 4:00 PM)
Minimum temperature yesterday: 47 °F (at 4:00 AM)
Average temperature yesterday: 53 °F

High & Low Weather Summary for the Past Weeks

 TemperatureHumidityPressure
High76 °F (Apr 23, 3:00 PM)99% (Apr 22, 2:00 AM)30.32 "Hg (Apr 22, 2:00 AM)
Low40 °F (Apr 20, 5:00 AM)21% (Apr 20, 1:00 PM)29.38 "Hg (Apr 17, 3:00 PM)
Average54 °F71%29.93 "Hg
* Reported Apr 17 2:00 AM — May 2 2:00 AM, Fukushima, Weather by CustomWeather, © 2016

Note: Actual official high and low records may vary slightly from our data, if they occured in-between our weather recording intervals... More about our weather records

Advertising

Fukushima Weather History for the Previous 24 Hours

Scroll right to see more
 ConditionsComfort  
Time TempWeatherWind HumidityBarometerVisibility
2:00 AM
Mon, May 2
53 °FFog.3 mph95%30.06 "Hg2 mi
1:00 AM53 °FFog.1 mph94%30.07 "Hg2 mi
12:00 AM53 °FFog.2 mph94%30.07 "Hg2 mi
11:00 PM
Sun, May 1
53 °FFog.3 mph94%30.06 "Hg2 mi
10:00 PM55 °FFog.6 mph89%30.05 "Hg3 mi
9:00 PM56 °FFog.6 mph86%30.04 "Hg4 mi
8:00 PM57 °FFog.5 mph84%30.02 "Hg4 mi
7:00 PM56 °FFog.3 mph87%30.00 "Hg4 mi
6:00 PM59 °FFog.12 mph80%29.97 "Hg4 mi
5:00 PM60 °FFog.6 mph81%29.96 "Hg5 mi
4:00 PM61 °FCool.5 mph73%29.94 "Hg7 mi
3:00 PM59 °FCool.9 mph78%29.93 "Hg8 mi
2:00 PM60 °FCool.6 mph75%29.91 "Hg11 mi
1:00 PM59 °FLight rain. Cloudy.3 mph77%29.92 "Hg11 mi
12:00 PM55 °FLight rain. Cloudy.7 mph88%29.93 "Hg12 mi
10:00 AM51 °FLight rain. Cloudy.5 mph96%29.95 "Hg4 mi
9:00 AM50 °FLight rain. Cloudy.3 mph94%29.96 "Hg3 mi
8:00 AM50 °FLight rain. Cloudy.1 mph93%29.97 "Hg9 mi
7:00 AM48 °FLight rain. Cloudy.5 mph95%29.97 "Hg6 mi
5:00 AM48 °FLight rain. Cloudy.1 mph98%29.94 "Hg6 mi
4:00 AM47 °FLight rain. Cloudy.1 mph95%29.95 "Hg5 mi
3:00 AM48 °FLight rain. Overcast.2 mph93%29.94 "Hg11 mi
Weather by CustomWeather, © 2016

See weather overviewHow to use our weather pages